EW2112 Weather Reports


Display with metric or nautical units.
time (UTC)temp
F
wind
direction
speed
MPH
gust
MPH
rain 1hr
in
rain 24hr
in
rain mn
in
humidity
%
barometer
mb
20260509074523 63 128 0.0 1.0 0.00 0.00 0.00 62 1020.5
20260509073025 64 128 0.0 3.0 0.00 0.00 0.00 60 1020.4
20260509071523 65 144 0.0 3.0 0.00 0.00 0.00 58 1020.2
20260509070022 66 138 1.0 7.0 0.00 0.00 0.00 56 1020.0
20260509064522 68 111 1.0 5.0 0.00 0.00 0.00 54 1019.8
20260509063027 69 109 1.0 5.0 0.00 0.00 0.00 52 1019.7
20260509061522 70 115 3.0 9.0 0.00 0.00 0.00 50 1019.4
20260509060019 71 111 3.0 7.0 0.00 0.00 0.00 48 1019.3
20260509054521 71 110 1.0 7.0 0.00 0.00 0.00 48 1019.1
20260509053018 72 158 5.0 10.0 0.00 0.00 0.00 46 1019.0
20260509051517 73 155 2.0 8.0 0.00 0.00 0.00 40 1018.9
20260509050024 74 334 1.0 5.0 0.00 0.00 0.00 39 1018.9
20260509044514 74 182 1.0 3.0 0.00 0.00 0.00 40 1019.0
20260509043012 73 167 3.0 7.0 0.00 0.00 0.00 40 1019.0
20260509041519 72 174 1.0 4.0 0.00 0.00 0.00 42 1019.0
20260509040011 73 229 2.0 5.0 0.00 0.00 0.00 40 1019.0
20260509034509 73 234 2.0 6.0 0.00 0.00 0.00 41 1019.0
20260509033008 72 306 1.0 6.0 0.00 0.00 0.00 41 1019.2
20260509031521 72 173 4.0 7.0 0.00 0.00 0.00 41 1019.4
20260509030006 71 254 2.0 6.0 0.00 0.00 0.00 43 1019.5
20260509024504 71 200 3.0 10.0 0.00 0.00 0.00 44 1019.8
20260509023003 71 234 1.0 6.0 0.00 0.00 0.00 44 1020.0
20260509021600 70 190 1.0 8.0 0.00 0.00 0.00 47 1020.2
20260509020059 70 181 4.0 8.0 0.00 0.00 0.00 48 1020.4
20260509014556 69 181 1.0 6.0 0.00 0.00 0.00 47 1020.6
20260509013053 69 279 3.0 5.0 0.00 0.00 0.00 52 1020.8
20260509011550 67 286 1.0 5.0 0.00 0.00 0.00 54 1020.8
20260509010048 66 238 0.0 4.0 0.00 0.00 0.00 56 1021.0
20260509004543 65 291 1.0 4.0 0.00 0.00 0.00 58 1021.2
20260509003045 64 279 1.0 5.0 0.00 0.00 0.00 58 1021.3
20260509001536 63 265 2.0 6.0 0.00 0.00 0.00 60 1021.4
20260509000033 63 240 2.0 4.0 0.00 0.00 0.00 61 1021.5
20260508234529 62 243 1.0 4.0 0.00 0.00 0.00 62 1021.5
20260508233025 61 275 2.0 7.0 0.00 0.00 0.00 66 1021.5
20260508231521 59 268 1.0 3.0 0.00 0.00 0.00 68 1021.5
20260508230017 57 304 1.0 3.0 0.00 0.00 0.00 71 1021.5
20260508224512 56 304 0.0 3.0 0.00 0.00 0.00 74 1021.5
20260508223009 54 304 0.0 2.0 0.00 0.00 0.00 77 1021.5
20260508221504 52 304 0.0 2.0 0.00 0.00 0.00 81 1021.4
20260508220008 49 304 0.0 1.0 0.00 0.00 0.00 88 1021.3
20260508214600 48 304 0.0 0.0 0.00 0.00 0.00 88 1021.1
20260508213059 47 304 0.0 0.0 0.00 0.00 0.00 89 1021.0
20260508211554 47 304 0.0 0.0 0.00 0.00 0.00 87 1020.8
20260508210054 47 304 0.0 0.0 0.00 0.00 0.00 87 1020.5
20260508204601 47 304 0.0 1.0 0.00 0.00 0.00 85 1020.4
20260508203148 47 304 0.0 0.0 0.00 0.00 0.00 84 1020.2
20260508201547 48 304 0.0 1.0 0.00 0.00 0.00 83 1020.0
20260508200044 49 304 0.0 4.0 0.00 0.00 0.00 82 1020.0
20260508194540 49 304 0.0 2.0 0.00 0.00 0.00 81 1019.7
20260508193037 50 304 1.0 3.0 0.00 0.00 0.00 80 1019.5
20260508191536 49 302 2.0 4.0 0.00 0.00 0.00 83 1019.3
20260508190041 49 203 0.0 0.0 0.00 0.00 0.00 85 1019.2
20260508184542 49 203 0.0 0.0 0.00 0.00 0.00 83 1019.0
20260508183033 49 203 0.0 0.0 0.00 0.00 0.00 82 1018.9
20260508181538 50 203 0.0 0.0 0.00 0.00 0.00 82 1018.7
20260508180029 50 203 0.0 1.0 0.00 0.00 0.00 80 1018.6
20260508174535 51 203 0.0 0.0 0.00 0.00 0.00 80 1018.7
20260508173026 51 203 0.0 0.0 0.00 0.00 0.00 79 1018.7
20260508171526 51 203 0.0 2.0 0.00 0.00 0.00 79 1018.6
20260508170026 51 203 0.0 2.0 0.00 0.00 0.00 79 1018.7
20260508164525 50 203 1.0 3.0 0.00 0.00 0.00 81 1018.7
20260508163033 49 203 0.0 0.0 0.00 0.00 0.00 83 1018.6
20260508161529 49 203 0.0 1.0 0.00 0.00 0.00 82 1018.6
20260508160020 49 203 0.0 1.0 0.00 0.00 0.00 81 1018.5
20260508154519 49 203 0.0 1.0 0.00 0.00 0.00 81 1018.5
20260508153020 49 203 0.0 2.0 0.00 0.00 0.00 81 1018.5
20260508151517 50 203 0.0 1.0 0.00 0.00 0.00 80 1018.6
20260508150015 50 203 0.0 0.0 0.00 0.00 0.00 78 1018.5
20260508144511 51 203 0.0 0.0 0.00 0.00 0.00 77 1018.4
20260508143010 52 203 0.0 0.0 0.00 0.00 0.00 77 1018.5
20260508141508 51 203 0.0 2.0 0.00 0.00 0.00 78 1018.5
20260508140008 51 203 0.0 0.0 0.00 0.00 0.00 78 1018.3
20260508134509 51 203 0.0 0.0 0.00 0.00 0.00 78 1018.3
20260508133003 51 203 0.0 0.0 0.00 0.00 0.00 78 1018.3
20260508131503 51 203 0.0 1.0 0.00 0.00 0.00 78 1018.3
20260508130005 52 203 0.0 2.0 0.00 0.00 0.00 77 1018.3
20260508124507 51 203 0.0 2.0 0.00 0.00 0.00 78 1018.3
20260508123000 52 202 0.0 2.0 0.00 0.00 0.00 77 1018.2
20260508121601 52 202 0.0 1.0 0.00 0.00 0.00 76 1018.2
20260508120100 52 202 0.0 1.0 0.00 0.00 0.00 75 1018.1
20260508114559 53 202 0.0 0.0 0.00 0.00 0.00 73 1018.2
20260508113104 54 202 0.0 0.0 0.00 0.00 0.00 72 1018.2
20260508111556 54 202 0.0 0.0 0.00 0.00 0.00 71 1017.9
20260508110054 54 202 0.0 2.0 0.00 0.00 0.00 71 1017.6
20260508104552 54 200 0.0 0.0 0.00 0.00 0.00 70 1017.7
20260508103051 55 200 0.0 0.0 0.00 0.00 0.00 68 1017.6
20260508101547 56 200 0.0 1.0 0.00 0.00 0.00 67 1017.4
20260508100046 56 200 0.0 0.0 0.00 0.00 0.00 65 1017.3
20260508094605 57 200 0.0 2.0 0.00 0.00 0.00 63 1017.1
20260508093040 58 200 0.0 2.0 0.00 0.00 0.00 62 1016.9
20260508091542 58 199 0.0 1.0 0.00 0.00 0.00 61 1016.8
20260508090038 59 197 0.0 0.0 0.00 0.00 0.00 59 1016.6
20260508084535 60 197 1.0 6.0 0.00 0.00 0.00 58 1016.3
20260508083034 61 219 1.0 4.0 0.00 0.00 0.00 56 1016.3
20260508081556 62 257 0.0 4.0 0.00 0.00 0.00 55 1016.1
20260508080031 62 261 2.0 8.0 0.00 0.00 0.00 53 1015.8